Location: American Canyon
(38.1966°N, 122.1514°W)
Time: 17:25:33
(UTC+00:00)

Cosmos 2195 Rocket - Pass Details

Date: 29 October 2020
Orbit: 948 x 994 km, 82.9° (Epoch: 22 November)

Event Time Altitude Azimuth Distance (km) Brightness Sun altitude
Rises 13:03:26 0° 194° (SSW) 3,660 7.4 -17.9°
Reaches altitude 10° 13:05:59 10° 197° (SSW) 2,710 6.7 -17.5°
Maximum altitude 13:12:07 64° 279° (W) 1,063 4.4 -16.2°
Drops below altitude 10° 13:18:15 10° 0° (N) 2,696 6.8 -15.1°
Sets 13:20:46 0° 4° (N) 3,640 7.5 -14.6°
